Location: Haliburton Scout Reserve
(45.0900°N, 78.3200°W)
Time: 01:28:56
(UTC-04:00)

DIWATA 2B (PO-101) - Pass Details

Date: 23 May 2022
Orbit: 585 x 597 km, 98.0° (Epoch: 27 June)

Event Time Altitude Azimuth Distance (km) Brightness Sun altitude
Exits shadow 03:26:53 36° 216° (SW) 930 ? -17.3°
Maximum altitude 03:28:01 47° 260° (W) 785 ? -17.2°
Drops below altitude 10° 03:32:03 10° 335° (NNW) 1,923 ? -16.8°
Sets 03:34:18 0° 342° (NNW) 2,830 ? -16.6°
